sat.trackr.live / text

‹ back to catalog

STARLINK-4544

NORAD 53394 · 2022-097G

PAYLOAD ACTIVE UNKNOWN

§ Identity

Operator
Country
US
Launch date
2022-08-10
Launch site
AFETR
Launch vehicle
Mass (kg)
RCS (m²)

Purposes: comms

External: N2YO · Heavens-Above · Gunter

§ Orbital elements

Epoch: 2026-05-25T05:28:10.339680Z

Period
95.44 min
Inclination
53.2151°
Eccentricity
0.0001024
Mean motion
15.08842641 rev/d
Perigee alt
539.0 km
Apogee alt
540.4 km
Semi-major
6,917.9 km
B*
-8.1833e-6
RAAN
130.1363°
Arg perigee
79.3398°
Mean anomaly
280.7710°
Rev number
21,037

§ Raw data

STARLINK-45441 53394U 22097G   26145.22789745 -.00000418  00000+0 -81833-5 0  99982 53394  53.2151 130.1363 0001024  79.3398 280.7710 15.08842641210373

JSON: /api/v1/satellites/53394 · /tle

For live sub-satellite position, see the globe view (requires WebGL).

§ Visibility from observer

Set your observer location to see the next 7 days of passes ≥ 10°. The values pass through the URL so the page stays shareable.

No JS? Fill the form by hand. The geolocation button needs JavaScript.